EW1587 Weather Reports


time (UTC)temp
F
wind
direction
speed
knots
gust
knots
rain 1hr
in
rain 24hr
in
rain mn
in
humidity
%
barometer
mb
20260906070535 69 99 0.0 1.7 0.00 0.00 0.00 95 1016.1
20260906070037 70 92 0.0 1.7 0.00 0.00 0.00 95 1016.2
20260906065535 70 100 0.0 1.7 0.00 0.00 0.00 95 1016.4
20260906065034 70 127 0.0 1.7 0.00 0.00 0.00 95 1016.5
20260906064535 70 86 0.0 1.7 0.00 0.00 0.00 95 1016.5
20260906064034 70 73 0.9 1.7 0.00 0.00 0.00 96 1016.4
20260906063537 70 85 0.0 1.7 0.00 0.00 0.00 96 1016.4
20260906063037 70 88 0.0 0.9 0.00 0.00 0.00 96 1016.5
20260906062533 69 85 0.0 1.7 0.00 0.00 0.00 96 1016.6
20260906062033 69 96 0.0 1.7 0.00 0.00 0.00 96 1016.6
20260906061534 69 138 0.0 0.9 0.00 0.00 0.00 95 1016.6
20260906061035 69 139 0.0 3.5 0.00 0.00 0.00 95 1016.5
20260906060531 69 94 0.0 3.5 0.00 0.00 0.00 95 1016.4
20260906060034 69 111 0.0 1.7 0.00 0.00 0.00 95 1016.4
20260906052552 70 223 0.9 4.3 0.00 0.00 0.00 94 1016.3
20260906052051 70 180 0.9 5.2 0.00 0.00 0.00 94 1016.3
20260906051551 70 47 0.0 1.7 0.00 0.00 0.00 94 1016.2
20260906051050 70 91 0.0 2.6 0.00 0.00 0.00 94 1016.2
20260906050549 70 81 0.0 2.6 0.00 0.00 0.00 93 1016.2
20260906050051 71 218 0.0 2.6 0.00 0.00 0.00 93 1016.3
20260906045548 71 103 0.0 1.7 0.00 0.00 0.00 93 1016.3
20260906045048 71 52 0.0 1.7 0.00 0.00 0.00 93 1016.4
20260906044548 71 96 0.0 1.7 0.00 0.00 0.00 93 1016.5
20260906044047 71 158 0.0 1.7 0.00 0.00 0.00 92 1016.4
20260906043547 71 129 0.0 3.5 0.00 0.00 0.00 92 1016.5
20260906043047 71 131 0.0 3.5 0.00 0.00 0.00 93 1016.5
20260906042546 71 83 0.0 2.6 0.00 0.00 0.00 92 1016.6
20260906042047 71 29 0.0 0.0 0.00 0.00 0.00 92 1016.7
20260906040047 72 72 0.0 0.9 0.00 0.00 0.00 91 1016.6
20260906035542 72 91 0.0 1.7 0.00 0.00 0.00 91 1016.6
20260906035043 72 121 0.0 1.7 0.00 0.00 0.00 90 1016.6
20260906034549 72 127 0.0 2.6 0.00 0.00 0.00 90 1016.7
20260906034041 72 172 0.0 2.6 0.00 0.00 0.00 89 1016.5
20260906033541 72 104 0.0 2.6 0.00 0.00 0.00 89 1016.6
20260906033041 73 86 0.0 2.6 0.00 0.00 0.00 89 1016.6
20260906032542 73 105 0.0 1.7 0.00 0.00 0.00 89 1016.6
20260906032041 73 359 0.0 2.6 0.00 0.00 0.00 88 1016.7
20260906031604 73 176 0.0 2.6 0.00 0.00 0.00 88 1016.6
20260906031044 73 68 0.0 1.7 0.00 0.00 0.00 87 1016.6
20260906030541 73 67 0.0 1.7 0.00 0.00 0.00 87 1016.6
20260906030041 73 160 0.0 1.7 0.00 0.00 0.00 86 1016.6
20260906025541 73 66 0.0 0.9 0.00 0.00 0.00 86 1016.6
20260906025040 73 67 0.0 1.7 0.00 0.00 0.00 86 1016.6
20260906024555 73 255 0.0 1.7 0.00 0.00 0.00 85 1016.6
20260906024042 74 130 0.0 1.7 0.00 0.00 0.00 85 1016.6
20260906023540 74 121 0.0 1.7 0.00 0.00 0.00 85 1016.6
20260906023044 74 134 0.0 0.9 0.00 0.00 0.00 85 1016.6
20260906022539 74 94 0.0 0.9 0.00 0.00 0.00 84 1016.7
20260906022040 74 94 0.0 0.9 0.00 0.00 0.00 84 1016.7
20260906021539 74 94 0.0 0.9 0.00 0.00 0.00 84 1016.6
20260906021039 74 105 0.0 0.9 0.00 0.00 0.00 84 1016.6
20260906020539 73 94 0.0 0.9 0.00 0.00 0.00 84 1016.5
20260906020039 73 136 0.0 0.9 0.00 0.00 0.00 84 1016.4
20260906015538 73 155 0.0 0.0 0.00 0.00 0.00 84 1016.2
20260906015039 73 156 0.0 0.9 0.00 0.00 0.00 83 1016.2
20260906014539 74 158 0.0 2.6 0.00 0.00 0.00 83 1016.0
20260906014043 74 280 0.0 1.7 0.00 0.00 0.00 82 1015.7
20260906013539 74 242 0.0 0.0 0.00 0.00 0.00 80 1015.6
20260906013038 75 243 0.0 0.0 0.00 0.00 0.00 80 1015.4
20260906012538 75 102 0.0 0.0 0.00 0.00 0.00 79 1015.2
20260906011039 76 100 0.0 1.7 0.00 0.00 0.00 78 1014.6
20260906010535 76 117 0.0 2.6 0.00 0.00 0.00 77 1014.6
20260906010046 77 109 0.0 2.6 0.00 0.00 0.00 77 1014.4
20260906005535 77 84 0.0 0.9 0.00 0.00 0.00 76 1014.3
20260906005034 77 108 0.0 0.9 0.00 0.00 0.00 76 1014.3
20260906004535 78 86 0.0 1.7 0.00 0.00 0.00 75 1014.2
20260906004033 78 115 0.0 1.7 0.00 0.00 0.00 74 1014.2
20260906003533 79 115 0.0 1.7 0.00 0.00 0.00 73 1014.1
20260906003033 79 100 0.0 2.6 0.00 0.00 0.00 72 1014.2
20260906002532 80 122 0.0 2.6 0.00 0.00 0.00 70 1014.1
20260906002033 81 117 0.0 2.6 0.00 0.00 0.00 69 1014.2
20260906001536 82 108 0.0 1.7 0.00 0.00 0.00 68 1014.2
20260906000030 82 72 0.0 2.6 0.00 0.00 0.00 70 1014.2
20260905235529 82 74 0.0 3.5 0.00 0.00 0.00 70 1014.1
20260905235031 82 103 0.0 3.5 0.00 0.00 0.00 70 1014.0
20260905234529 81 90 0.0 3.5 0.00 0.00 0.00 71 1014.0
20260905234029 81 105 0.9 5.2 0.00 0.00 0.00 70 1014.1
20260905233528 81 111 1.7 6.1 0.00 0.00 0.00 70 1014.0
20260905233027 81 103 2.6 6.1 0.00 0.00 0.00 69 1014.0
20260905232528 82 110 1.7 4.3 0.00 0.00 0.00 71 1013.9
20260905232028 81 92 1.7 5.2 0.00 0.00 0.00 70 1014.0
20260905231528 81 105 1.7 5.2 0.00 0.00 0.00 70 1014.1
20260905231028 81 90 3.5 7.0 0.00 0.00 0.00 69 1014.1
20260905230528 81 109 3.5 7.0 0.00 0.00 0.00 69 1014.1
20260905230032 82 110 3.5 7.0 0.00 0.00 0.00 68 1014.1
20260905225530 82 109 3.5 7.0 0.00 0.00 0.00 69 1014.1
20260905225025 81 22 4.3 7.0 0.00 0.00 0.00 68 1014.1
20260905224525 81 103 4.3 7.8 0.00 0.00 0.00 69 1014.1
20260905224024 81 104 5.2 8.7 0.00 0.00 0.00 68 1014.1
20260905223525 82 89 5.2 8.7 0.00 0.00 0.00 69 1013.9
20260905223024 82 86 5.2 8.7 0.00 0.00 0.00 68 1014.0
20260905222523 82 90 5.2 7.8 0.00 0.00 0.00 69 1014.0
20260905222024 82 75 4.3 7.0 0.00 0.00 0.00 69 1013.9
20260905221523 82 121 3.5 7.0 0.00 0.00 0.00 69 1014.0
20260905221022 82 78 3.5 7.0 0.00 0.00 0.00 68 1014.1
20260905220521 82 101 4.3 7.0 0.00 0.00 0.00 67 1014.1
20260905220023 82 139 1.7 6.1 0.00 0.00 0.00 68 1014.1
20260905215519 81 91 3.5 11.3 0.00 0.00 0.00 69 1013.9
20260905215019 81 91 6.1 11.3 0.00 0.00 0.00 68 1013.7
20260905214518 81 124 4.3 9.6 0.00 0.00 0.00 69 1013.7
20260905214118 81 121 5.2 9.6 0.00 0.00 0.00 67 1013.7
20260905213517 81 110 3.5 9.6 0.00 0.00 0.00 69 1013.7
20260905213116 81 82 5.2 9.6 0.00 0.00 0.00 69 1013.5
20260905212515 81 124 6.1 12.2 0.00 0.00 0.00 69 1013.6
20260905212013 81 115 6.1 12.2 0.00 0.00 0.00 70 1013.8
20260905211529 81 77 6.1 10.4 0.00 0.00 0.00 68 1014.0
20260905211013 81 101 5.2 9.6 0.00 0.00 0.00 68 1014.0
20260905210511 81 94 4.3 9.6 0.00 0.00 0.00 70 1014.0
20260905210010 81 111 5.2 9.6 0.00 0.00 0.00 70 1014.0
20260905205509 80 127 6.1 10.4 0.00 0.00 0.00 70 1014.2
20260905205008 80 108 4.3 10.4 0.00 0.00 0.00 73 1014.4
20260905204507 80 105 5.2 10.4 0.00 0.00 0.00 72 1014.5
20260905204005 79 120 6.1 10.4 0.00 0.00 0.00 74 1014.6
20260905203505 79 111 4.3 8.7 0.00 0.00 0.00 75 1014.7
20260905203004 79 77 5.2 7.8 0.00 0.00 0.00 74 1014.8
20260905202503 79 47 5.2 11.3 0.00 0.00 0.00 76 1014.9
20260905202002 79 79 6.1 11.3 0.00 0.00 0.00 76 1015.0
20260905201501 79 82 5.2 9.6 0.00 0.00 0.00 77 1015.1
20260905201100 79 117 5.2 8.7 0.00 0.00 0.00 78 1015.2
20260905200559 78 79 5.2 8.7 0.00 0.00 0.00 79 1015.2
20260905200118 79 124 3.5 7.8 0.00 0.00 0.00 79 1015.4
20260905195556 78 121 3.5 7.8 0.00 0.00 0.00 81 1015.3
20260905194554 77 101 4.3 8.7 0.00 0.00 0.00 81 1015.6
20260905194055 77 106 4.3 7.8 0.00 0.00 0.00 82 1015.7
20260905193551 77 160 3.5 7.8 0.00 0.00 0.00 83 1015.8
20260905193052 76 94 1.7 7.0 0.00 0.00 0.00 85 1015.9
20260905192550 76 77 3.5 7.0 0.00 0.00 0.00 85 1016.0
20260905192049 76 86 3.5 7.8 0.00 0.00 0.00 84 1015.8
20260905191549 76 105 4.3 7.8 0.00 0.00 0.00 85 1015.7
20260905191050 76 65 3.5 9.6 0.00 0.00 0.00 86 1015.7
20260905190647 75 124 4.3 9.6 0.00 0.00 0.00 86 1015.7
20260905190045 75 103 5.2 7.8 0.00 0.00 0.00 87 1015.8
20260905185543 74 77 3.5 8.7 0.00 0.00 0.00 88 1015.9
20260905185043 73 96 2.6 8.7 0.00 0.00 0.00 88 1016.0
20260905184543 73 121 5.2 8.7 0.00 0.00 0.00 87 1016.0
20260905184046 73 99 2.6 7.0 0.00 0.00 0.00 88 1016.2
20260905183542 73 101 3.5 7.0 0.00 0.00 0.00 86 1016.2
20260905183045 73 67 0.0 5.2 0.00 0.00 0.00 89 1016.2
20260905182541 73 120 1.7 3.5 0.00 0.00 0.00 87 1016.4
20260905182039 73 57 0.0 2.6 0.00 0.00 0.00 88 1016.5
20260905181538 73 77 0.0 3.5 0.00 0.00 0.00 88 1016.6
20260905181038 72 77 0.9 3.5 0.00 0.00 0.00 88 1016.8
20260905180538 72 124 0.0 3.5 0.00 0.00 0.00 88 1016.9
20260905180036 73 326 0.0 1.7 0.00 0.00 0.00 88 1017.1
20260905175536 72 243 0.0 3.5 0.00 0.00 0.00 89 1017.0
20260905175038 72 174 0.0 3.5 0.00 0.00 0.00 89 1017.0
20260905174536 72 85 0.0 4.3 0.00 0.00 0.00 88 1017.0
20260905174035 72 115 0.0 5.2 0.00 0.00 0.00 89 1017.1
20260905173539 72 181 0.9 5.2 0.00 0.00 0.00 88 1017.2
20260905173053 72 161 0.9 4.3 0.00 0.00 0.00 88 1017.3
20260905172534 72 153 0.9 6.1 0.00 0.00 0.00 89 1017.4
20260905172033 72 204 1.7 6.1 0.00 0.00 0.00 91 1017.3
20260905171532 71 173 0.0 6.1 0.00 0.00 0.00 93 1017.1
20260905171033 70 102 0.9 6.1 0.00 0.00 0.00 94 1017.1
20260905170528 69 184 0.0 7.0 0.00 0.00 0.00 95 1017.2
20260905170027 69 86 2.6 7.8 0.00 0.00 0.00 95 1017.2
20260905165525 68 111 0.0 7.8 0.00 0.00 0.00 97 1017.2
20260905165024 68 84 0.0 7.8 0.00 0.00 0.00 97 1017.2
20260905164625 68 122 2.6 8.7 0.00 0.00 0.00 97 1017.1
20260905164027 67 109 4.3 7.0 0.00 0.00 0.00 97 1016.9
20260905163521 67 217 1.7 5.2 0.00 0.00 0.00 98 1017.1
20260905163021 67 127 0.9 6.1 0.00 0.00 0.00 99 1017.3
20260905162520 66 101 1.7 4.3 0.00 0.00 0.00 99 1017.2
20260905162022 66 101 1.7 4.3 0.00 0.00 0.00 99 1017.4
20260905161517 66 115 1.7 4.3 0.00 0.00 0.00 100 1017.4
20260905161017 66 87 0.0 3.5 0.00 0.00 0.00 100 1017.3
20260905160515 66 89 0.0 4.3 0.00 0.00 0.00 100 1017.3
20260905160015 65 86 0.9 5.2 0.00 0.00 0.00 100 1017.1
20260905155513 65 69 2.6 5.2 0.00 0.00 0.00 100 1017.2
20260905155014 65 107 2.6 7.0 0.00 0.00 0.00 100 1017.1
20260905154514 65 89 5.2 7.8 0.00 0.00 0.00 100 1016.8
20260905154015 64 94 5.2 7.8 0.00 0.00 0.00 100 1016.9
20260905153512 64 11 5.2 7.8 0.00 0.00 0.00 100 1017.0
20260905153010 64 72 3.5 7.0 0.00 0.00 0.00 100 1017.2
20260905152513 64 82 2.6 7.0 0.00 0.00 0.00 100 1017.3
20260905152009 64 71 2.6 5.2 0.00 0.00 0.00 100 1017.3
20260905151509 64 65 0.9 5.2 0.00 0.00 0.00 100 1017.3
20260905151012 64 70 2.6 6.1 0.00 0.00 0.00 100 1017.3
20260905150507 64 113 1.7 6.1 0.00 0.00 0.00 100 1017.2
20260905150006 64 94 2.6 6.1 0.00 0.00 0.00 100 1017.0
20260905145508 63 65 1.7 4.3 0.00 0.00 0.00 100 1017.0
20260905145007 63 66 0.9 2.6 0.00 0.00 0.00 100 1017.2
20260905144506 63 77 0.0 2.6 0.00 0.00 0.00 100 1017.4
20260905144007 63 73 0.0 2.6 0.00 0.00 0.00 100 1017.5
20260905143506 63 79 0.0 2.6 0.00 0.00 0.00 100 1017.4
20260905143004 63 65 0.0 4.3 0.00 0.00 0.00 100 1017.1
20260905142502 63 103 0.9 5.2 0.00 0.00 0.00 100 1016.8
20260905142003 63 79 0.9 6.1 0.00 0.00 0.00 100 1016.7
20260905141506 63 48 2.6 5.2 0.00 0.00 0.00 100 1016.7
20260905141002 63 98 2.6 6.1 0.00 0.00 0.00 100 1016.6
20260905140504 63 73 3.5 6.1 0.00 0.00 0.00 100 1016.6
20260905140000 63 88 2.6 7.0 0.00 0.00 0.00 100 1016.6
20260905135502 62 58 3.5 7.0 0.00 0.00 0.00 100 1016.6
20260905135100 62 92 3.5 6.1 0.00 0.00 0.00 100 1016.5
20260905135003 62 110 3.5 6.1 0.00 0.00 0.00 100 1016.6
20260905134603 62 84 3.5 6.1 0.00 0.00 0.00 100 1016.5
20260905134059 62 73 3.5 5.2 0.00 0.00 0.00 100 1016.7
20260905133601 62 64 2.6 4.3 0.00 0.00 0.00 100 1016.6
20260905133059 62 69 2.6 4.3 0.00 0.00 0.00 100 1016.7
20260905132557 62 86 1.7 3.5 0.00 0.00 0.00 100 1016.8
20260905132057 62 96 0.9 3.5 0.00 0.00 0.00 100 1016.8
20260905131603 62 81 0.9 3.5 0.00 0.00 0.00 100 1016.8
20260905131055 62 57 0.9 3.5 0.00 0.00 0.00 100 1016.8
20260905130611 62 96 0.9 3.5 0.00 0.00 0.00 100 1016.7
20260905130055 62 89 0.9 3.5 0.00 0.00 0.00 100 1016.6
20260905125552 62 91 0.9 2.6 0.00 0.00 0.00 100 1016.5
20260905125047 62 103 0.9 4.3 0.00 0.00 0.00 100 1016.4
20260905124544 62 94 1.7 4.3 0.00 0.00 0.00 100 1016.1
20260905124510 62 128 1.7 4.3 0.00 0.00 0.00 100 1016.1
20260905124043 62 86 1.7 5.2 0.00 0.00 0.00 100 1015.9
20260905123539 62 92 2.6 6.1 0.00 0.00 0.00 100 1015.6
20260905123036 61 94 3.5 6.1 0.00 0.00 0.00 100 1015.5
20260905122540 61 93 2.6 6.1 0.00 0.00 0.00 100 1015.5
20260905122051 61 111 3.5 4.3 0.00 0.00 0.00 100 1015.4
20260905121533 61 106 1.7 4.3 0.00 0.00 0.00 100 1015.6
20260905121044 61 100 1.7 5.2 0.00 0.00 0.00 100 1015.6
20260905120557 61 113 2.6 5.2 0.00 0.00 0.00 100 1015.6
20260905120030 61 105 1.7 5.2 0.00 0.00 0.00 100 1015.3
20260905115530 61 92 1.7 5.2 0.00 0.00 0.00 100 1015.5
20260905115032 62 156 0.9 3.5 0.00 0.00 0.00 100 1015.6
20260905114532 62 91 2.6 4.3 0.00 0.00 0.00 100 1015.4
20260905114034 62 81 0.0 5.2 0.00 0.00 0.00 100 1015.7
20260905113528 62 72 2.6 6.1 0.00 0.00 0.00 100 1015.4
20260905113028 62 102 3.5 7.0 0.00 0.00 0.00 100 1015.3
20260905112529 62 101 3.5 7.0 0.00 0.00 0.00 100 1015.2
20260905112029 62 103 3.5 6.1 0.00 0.00 0.00 100 1015.2
20260905111528 62 79 2.6 6.1 0.00 0.00 0.00 100 1015.3
20260905111027 61 113 3.5 6.1 0.00 0.00 0.00 100 1015.3
20260905110527 62 79 2.6 5.2 0.00 0.00 0.00 100 1015.3
20260905110025 62 83 1.7 6.1 0.00 0.00 0.00 100 1015.3
20260905105525 62 94 0.9 6.1 0.00 0.00 0.00 100 1015.3
20260905105025 62 99 2.6 6.1 0.00 0.00 0.00 100 1015.2
20260905104526 62 88 0.9 3.5 0.00 0.00 0.00 100 1015.1
20260905104026 62 82 2.6 6.1 0.00 0.00 0.00 100 1015.1
20260905103523 62 101 2.6 6.1 0.00 0.00 0.00 100 1014.8
20260905103023 62 90 2.6 5.2 0.00 0.00 0.00 100 1014.8
20260905102523 62 110 2.6 5.2 0.00 0.00 0.00 100 1014.8
20260905102022 62 92 2.6 4.3 0.00 0.00 0.00 100 1014.9
20260905101526 62 92 1.7 3.5 0.00 0.00 0.00 100 1014.9
20260905101023 62 107 1.7 3.5 0.00 0.00 0.00 100 1014.8
20260905100522 62 95 0.9 3.5 0.00 0.00 0.00 100 1015.0
20260905100021 62 81 0.9 3.5 0.00 0.00 0.00 100 1015.0
20260905095521 62 106 1.7 3.5 0.00 0.00 0.00 100 1015.2
20260905095022 62 107 0.0 4.3 0.00 0.00 0.00 100 1014.9
20260905094522 62 111 2.6 7.0 0.00 0.00 0.00 100 1014.6
20260905094020 62 98 3.5 7.0 0.00 0.00 0.00 100 1014.4
20260905093519 62 119 1.7 4.3 0.00 0.00 0.00 100 1014.3
20260905093019 62 88 0.9 5.2 0.00 0.00 0.00 100 1014.2
20260905092518 62 85 2.6 6.1 0.00 0.00 0.00 100 1014.1
20260905092018 62 113 2.6 6.1 0.00 0.00 0.00 100 1014.1
20260905091518 62 88 1.7 7.8 0.00 0.00 0.00 100 1014.1
20260905091019 62 94 3.5 7.8 0.00 0.00 0.00 100 1014.2
20260905090518 62 105 3.5 7.0 0.00 0.00 0.00 100 1014.2
20260905090016 62 85 2.6 7.0 0.00 0.00 0.00 100 1014.2
20260905085515 62 68 3.5 5.2 0.00 0.00 0.00 100 1014.4
20260905085014 62 81 2.6 5.2 0.00 0.00 0.00 100 1014.6
20260905084513 62 90 2.6 5.2 0.00 0.00 0.00 100 1014.7
20260905084014 62 56 2.6 5.2 0.00 0.00 0.00 100 1014.8
20260905083513 62 94 3.5 7.0 0.00 0.00 0.00 100 1014.9
20260905083018 62 105 3.5 7.0 0.00 0.00 0.00 100 1014.9
20260905082513 62 93 2.6 5.2 0.00 0.00 0.00 100 1014.9
20260905082013 62 82 1.7 3.5 0.00 0.00 0.00 100 1015.0
20260905081512 62 115 1.7 4.3 0.00 0.00 0.00 100 1014.9
20260905081011 62 79 1.7 5.2 0.00 0.00 0.00 100 1014.8
20260905080511 62 48 2.6 7.0 0.00 0.00 0.00 100 1014.7
20260905080012 62 82 3.5 8.7 0.00 0.00 0.00 100 1014.7
20260905075510 62 51 5.2 9.6 0.00 0.00 0.00 100 1014.8
20260905075010 62 58 3.5 5.2 0.00 0.00 0.00 100 1014.8
20260905074516 62 102 1.7 5.2 0.00 0.00 0.00 100 1014.9
20260905074010 62 90 2.6 7.0 0.00 0.00 0.00 100 1014.9
20260905073509 62 107 3.5 7.0 0.00 0.00 0.00 100 1014.9
20260905073009 62 129 3.5 5.2 0.00 0.00 0.00 99 1014.9
20260905072509 62 97 3.5 5.2 0.00 0.00 0.00 99 1014.9
20260905072008 62 86 2.6 6.1 0.00 0.00 0.00 99 1014.8
20260905071516 62 98 1.7 6.1 0.00 0.00 0.00 99 1014.7
20260905071007 62 79 3.5 7.0 0.00 0.00 0.00 99 1014.7